Wetbulb
66.26 65.85 66.23 64.74 66.30 67.22 67.73 68.52 68.58 68.54 68.17 67.78 68.05 67.76 67.62 67.84 67.33 66.69 67.06 67.12 66.63 65.54 64.45 63.69 63.29 62.55 61.97 61.24 60.33 61.48 61.70 61.74
65.35 65.94 66.63 65.76 64.72 65.14 65.73 67.21 67.65 67.62 67.36 66.96 66.45 66.59 66.83 66.39 65.62 65.96 67.05 67.17 66.04 64.52 63.80 63.32 62.88 62.11 61.26 60.81 60.44 60.75 61.55 61.70
63.55 64.20 65.25 66.05 64.57 65.53 66.27 66.96 66.79 66.80 66.98 66.09 65.51 67.65 66.84 65.33 64.42 65.00 66.46 65.87 64.73 64.21 63.43 62.54 61.85 61.24 60.98 60.44 59.93 60.44 61.20 61.35
63.04 62.66 63.09 62.84 65.01 64.67 65.79 66.40 66.90 66.77 66.51 67.19 66.90 66.95 65.75 64.36 63.90 63.53 64.86 65.19 64.33 63.72 62.96 62.00 60.71 60.31 59.96 59.23 59.57 60.41 60.76 61.07
62.50 61.91 62.07 61.21 61.81 62.71 65.04 64.77 65.51 65.82 65.24 66.49 65.60 64.72 64.04 63.43 63.42 62.10 63.90 64.38 63.55 62.96 61.63 60.86 60.55 59.87 58.88 59.16 59.82 59.98 60.42 60.95
61.65 60.76 60.54 60.67 60.77 61.06 62.99 63.49 64.08 64.36 64.23 64.54 64.64 62.94 62.35 61.42 61.14 60.26 60.77 62.25 63.43 62.58 60.57 60.82 60.05 59.38 58.93 58.98 59.35 59.36 59.80 60.25
59.98 59.46 59.79 59.29 59.64 61.41 62.18 62.40 63.49 63.66 63.63 64.42 63.78 61.74 60.88 60.72 60.02 58.72 58.47 58.33 59.25 59.32 58.93 59.39 58.87 58.64 58.66 58.70 58.73 59.13 59.64 59.62
59.11 58.30 58.83 58.17 59.74 61.65 62.17 62.44 63.10 62.58 63.21 63.97 62.53 61.56 60.34 59.05 58.52 57.60 56.86 56.90 57.81 58.20 58.47 58.64 58.43 58.33 57.98 58.31 58.29 59.02 59.24 59.46
58.15 57.92 58.12 57.92 58.32 60.64 61.69 62.22 62.40 61.81 61.91 62.68 61.20 60.03 59.15 58.04 57.54 57.44 57.29 56.15 55.57 54.35 55.84 57.15 56.95 56.96 56.44 57.02 57.39 58.20 58.75 58.99
58.44 58.30 58.06 58.49 58.24 59.39 60.42 60.91 60.94 61.34 61.08 61.17 60.25 59.84 59.02 58.15 56.96 57.41 57.78 56.09 54.72 54.38 53.75 54.65 54.65 54.67 53.15 53.86 54.46 55.46 57.24 58.46
57.83 57.99 57.54 58.27 58.33 59.84 60.08 60.12 60.80 60.52 60.25 59.94 59.53 58.69 58.38 57.76 56.92 57.21 58.06 56.62 55.84 54.79 53.24 53.36 52.36 52.24 52.05 53.26 53.77 53.26 53.17 53.18
57.33 57.58 57.40 57.23 57.69 58.63 58.97 59.15 59.71 59.64 59.12 59.61 59.73 59.20 58.94 58.68 58.18 57.10 57.31 56.82 55.88 54.92 54.04 54.07 52.89 52.31 49.92 50.48 52.34 53.44 54.04 53.27
55.91 56.13 56.69 56.77 57.75 57.31 57.07 56.63 58.25 58.04 58.65 58.64 59.30 59.53 58.87 59.21 58.04 57.38 57.62 56.96 56.83 56.43 54.77 54.14 52.82 52.48 51.08 51.02 51.03 51.72 52.31 52.99
55.85 55.63 55.95 56.59 57.69 57.50 57.23 56.64 57.37 57.85 58.30 58.38 58.26 58.27 58.60 59.20 58.86 58.03 57.45 57.13 57.53 56.65 56.42 55.09 55.41 53.09 52.60 52.28 50.17 50.91 51.25 51.79
55.66 55.62 56.19 56.54 56.82 56.38 55.61 55.66 55.93 56.16 56.89 57.25 58.31 58.97 59.61 59.06 59.10 58.77 58.78 58.39 57.24 57.86 57.55 56.83 55.56 53.70 53.52 54.51 49.30 49.60 51.31 52.25
56.03 55.79 55.87 56.73 56.83 56.36 55.29 54.70 55.18 56.31 56.33 57.26 57.81 58.97 59.74 59.65 59.68 59.69 59.60 59.11 59.01 58.98 58.16 57.78 57.25 54.64 52.30 52.28 53.50 54.02 51.97 51.12
56.52 55.35 55.39 56.34 56.90 57.16 56.49 56.29 57.34 56.78 56.57 56.86 57.77 59.91 60.66 60.36 60.73 60.95 60.54 60.42 60.09 59.60 58.16 57.32 57.11 57.63 55.64 53.80 52.75 52.20 52.24 50.83
54.89 55.12 55.49 55.75 56.74 57.39 55.78 57.55 57.15 54.75 56.75 56.17 56.55 57.68 58.85 59.96 60.82 61.15 61.15 60.38 60.05 59.72 59.41 58.87 58.25 57.36 57.27 56.29 54.27 53.21 51.22 50.13
54.25 54.17 55.31 55.82 55.57 56.94 56.21 56.23 56.25 55.93 55.55 56.11 55.69 56.02 56.65 57.73 59.30 59.86 60.18 60.55 60.44 60.61 60.16 59.34 58.66 57.97 57.65 56.89 56.60 56.59 56.73 52.21
53.45 53.67 54.07 55.63 55.80 55.96 56.42 56.72 56.30 55.90 56.52 56.96 55.81 55.99 56.82 57.96 58.57 59.16 59.91 60.40 60.50 60.59 60.87 60.62 59.82 58.92 58.01 56.94 56.02 53.98 53.35 52.62
MSLP
1011.41 1011.16 1011.36 1012.26 1012.92 1012.37 1011.74 1012.74 1013.13 1013.59 1014.12 1015.24 1015.96 1015.85 1016.59 1017.62 1018.34 1019.28 1019.96 1020.90 1021.29 1021.58 1022.11 1022.70 1023.25 1023.34 1023.49 1023.81 1024.21 1024.23 1024.19 1024.37
1011.37 1011.61 1011.53 1012.02 1013.28 1012.88 1013.21 1013.31 1013.61 1014.06 1014.18 1015.39 1016.08 1016.54 1016.98 1017.15 1018.70 1019.70 1020.62 1021.04 1021.83 1021.95 1022.51 1023.08 1023.41 1023.71 1024.03 1024.09 1024.55 1024.62 1024.47 1024.70
1011.84 1011.96 1011.83 1012.34 1012.75 1013.28 1013.42 1013.72 1014.34 1014.98 1015.09 1015.64 1016.18 1016.67 1017.31 1017.65 1018.77 1020.13 1020.89 1021.45 1021.99 1022.55 1022.98 1023.37 1023.78 1024.15 1024.50 1024.58 1024.77 1024.59 1024.82 1024.81
1011.89 1012.12 1012.43 1012.47 1012.66 1013.28 1013.54 1013.26 1014.42 1015.04 1015.53 1015.61 1016.29 1017.06 1017.60 1017.84 1019.19 1020.60 1021.17 1021.54 1022.20 1022.81 1023.22 1023.53 1023.83 1024.47 1024.93 1025.03 1024.79 1025.01 1025.24 1025.38
1011.74 1012.02 1012.21 1012.71 1012.99 1013.37 1013.55 1013.83 1014.50 1014.95 1015.55 1016.00 1016.33 1017.48 1018.16 1018.29 1019.53 1020.78 1021.15 1021.85 1022.40 1022.99 1023.57 1023.38 1023.76 1024.33 1024.49 1024.75 1025.07 1025.26 1025.46 1025.53
1011.83 1012.16 1012.52 1012.78 1013.10 1013.22 1013.26 1013.68 1014.54 1014.79 1015.46 1016.62 1016.41 1017.49 1018.22 1018.82 1019.61 1020.46 1021.14 1021.95 1022.27 1022.84 1023.28 1023.54 1024.04 1024.48 1024.51 1024.87 1025.10 1025.36 1025.61 1025.70
1011.76 1012.22 1012.39 1012.69 1012.80 1012.50 1012.72 1012.96 1013.89 1014.89 1015.61 1016.56 1016.80 1017.73 1018.37 1018.96 1019.90 1020.50 1021.17 1022.01 1022.57 1023.05 1023.10 1023.29 1024.07 1024.63 1024.89 1025.11 1025.39 1025.68 1025.90 1025.93
1011.93 1012.36 1012.45 1012.63 1012.52 1011.95 1012.09 1012.70 1013.55 1014.68 1015.61 1015.91 1017.56 1018.15 1018.70 1019.52 1020.18 1020.74 1021.50 1022.00 1022.56 1022.94 1022.96 1023.43 1023.94 1024.55 1024.87 1025.36 1025.68 1025.74 1025.86 1026.15
1012.24 1012.55 1012.70 1012.80 1012.47 1011.61 1011.68 1012.75 1013.69 1014.73 1015.79 1016.82 1017.72 1018.37 1018.78 1019.61 1020.69 1021.02 1021.57 1022.22 1022.93 1023.14 1023.22 1024.01 1024.27 1024.71 1025.00 1025.57 1025.71 1025.83 1025.88 1026.25
1012.51 1012.80 1013.00 1013.22 1013.01 1012.46 1012.35 1012.98 1014.48 1015.55 1016.39 1016.99 1017.59 1018.39 1019.22 1019.95 1020.78 1021.08 1021.75 1022.31 1022.94 1022.90 1023.22 1024.01 1024.38 1024.74 1025.12 1025.46 1025.50 1025.69 1025.85 1026.06
1012.60 1013.13 1013.45 1013.71 1013.79 1013.70 1013.73 1014.32 1015.47 1016.19 1016.71 1017.26 1017.87 1018.63 1019.45 1020.01 1020.80 1021.51 1021.97 1022.42 1022.77 1022.89 1023.76 1024.08 1024.48 1024.71 1024.89 1025.26 1025.45 1025.47 1025.80 1025.92
1012.99 1013.44 1013.80 1014.03 1014.32 1014.59 1014.82 1015.37 1016.04 1016.51 1016.92 1017.79 1018.01 1018.82 1019.63 1020.25 1020.80 1021.65 1022.16 1022.43 1022.94 1023.00 1023.61 1024.08 1024.32 1024.50 1024.72 1025.15 1025.41 1025.43 1025.62 1025.74
1013.00 1013.47 1014.00 1014.34 1014.62 1014.97 1015.49 1016.02 1016.71 1017.20 1017.47 1018.06 1018.55 1019.19 1019.70 1020.08 1020.78 1021.36 1021.92 1022.24 1022.32 1022.81 1023.66 1024.00 1024.28 1024.49 1024.88 1025.14 1025.18 1025.29 1025.37 1025.29
1013.18 1013.53 1013.89 1014.41 1014.81 1015.16 1015.65 1016.10 1016.89 1017.22 1017.60 1017.94 1018.63 1018.99 1019.37 1020.23 1020.35 1020.71 1021.86 1021.96 1022.30 1022.67 1023.08 1023.60 1023.87 1024.29 1024.23 1024.40 1024.37 1024.63 1024.72 1024.84
1013.10 1013.53 1013.84 1014.26 1014.78 1015.43 1015.98 1016.46 1016.89 1017.45 1017.92 1018.47 1018.47 1018.67 1018.98 1019.39 1020.00 1020.70 1021.29 1021.39 1021.89 1022.20 1022.55 1022.99 1023.24 1023.87 1023.89 1023.61 1023.93 1023.52 1023.92 1024.18
1012.84 1013.36 1013.72 1014.14 1014.42 1014.91 1015.37 1015.46 1015.77 1016.32 1016.91 1017.76 1018.40 1018.77 1019.05 1019.55 1020.08 1020.21 1020.52 1020.97 1021.63 1021.67 1021.75 1022.43 1022.82 1023.01 1023.58 1023.29 1023.30 1023.17 1023.09 1023.21
1012.52 1012.98 1013.43 1014.00 1014.25 1014.51 1015.08 1015.42 1015.77 1016.39 1017.00 1017.56 1018.31 1018.63 1019.02 1019.38 1019.60 1019.87 1019.99 1020.66 1020.87 1021.28 1021.75 1022.12 1022.22 1022.23 1022.27 1022.69 1023.11 1023.29 1023.43 1023.33
1012.27 1012.68 1013.06 1013.64 1013.93 1014.29 1014.79 1015.02 1015.33 1016.08 1016.69 1017.14 1017.73 1017.91 1018.26 1018.82 1019.25 1019.50 1019.79 1020.15 1020.53 1020.81 1020.92 1021.14 1021.44 1021.73 1021.95 1022.06 1021.93 1022.21 1022.44 1022.95
1011.83 1012.34 1012.68 1013.10 1013.38 1013.67 1014.41 1014.74 1015.05 1015.61 1015.99 1016.57 1016.94 1017.19 1017.80 1018.39 1018.89 1019.28 1019.41 1019.62 1019.79 1019.82 1020.01 1020.36 1020.60 1020.91 1020.91 1020.99 1021.24 1021.05 1021.19 1021.90
1011.14 1011.65 1012.15 1012.53 1012.98 1013.28 1013.95 1014.39 1014.76 1015.09 1015.67 1015.99 1016.45 1016.99 1017.52 1017.85 1018.17 1018.50 1018.69 1018.76 1018.94 1019.10 1019.58 1019.73 1019.95 1020.11 1020.16 1020.12 1020.41 1021.06 1021.07 1020.91
Wind_Speed
8 5 17 18 10 10 22 22 23 24 26 25 24 27 25 23 22 20 18 18 21 21 20 19 19 19 19 16 14 12 14 11
5 8 12 15 4 4 7 11 17 22 26 23 22 22 24 27 23 19 18 20 20 21 20 19 19 18 17 16 14 12 13 12
3 5 9 8 8 5 8 14 12 16 20 23 21 16 19 23 21 19 19 21 20 19 19 18 17 16 15 16 11 9 10 8
3 5 8 6 7 10 8 12 11 13 13 18 14 15 14 16 20 18 19 21 20 19 18 18 16 11 9 12 7 10 8 8
5 5 6 5 5 5 5 5 5 9 14 14 15 12 11 11 11 10 11 15 12 14 14 10 12 9 9 8 10 9 7 7
7 5 5 3 2 6 9 12 8 8 12 12 13 10 11 11 9 11 10 9 13 12 8 10 11 10 11 11 10 8 6 6
7 6 4 1 4 8 9 12 12 10 11 12 10 11 11 10 10 9 9 10 10 10 10 10 10 10 9 10 10 9 9 6
7 7 5 2 4 11 11 11 12 11 9 12 12 10 10 9 10 10 9 9 9 9 10 9 9 9 9 9 9 9 9 8
7 8 4 3 5 2 12 12 12 11 8 13 13 11 12 10 7 9 9 8 10 7 9 7 8 7 9 8 8 8 8 9
8 8 6 4 5 5 10 12 9 8 7 9 13 12 12 10 8 8 8 8 6 7 9 7 7 7 7 7 7 7 8 9
9 8 8 7 5 6 7 11 7 6 6 7 10 11 10 10 7 7 9 8 7 7 6 6 7 7 7 6 6 6 7 7
8 8 9 7 6 6 6 6 6 5 5 5 11 10 11 9 9 9 8 7 7 7 7 5 5 6 5 5 4 4 5 6
9 11 9 7 7 6 7 5 6 7 7 10 10 10 10 10 8 10 8 7 8 9 6 7 4 5 4 3 4 6 7 7
10 10 11 7 6 3 6 4 4 4 7 5 7 7 9 10 10 9 10 7 8 10 9 5 5 7 4 2 4 4 8 9
11 12 11 9 9 7 5 5 4 3 6 6 5 7 9 10 9 10 11 9 9 12 11 10 7 7 7 3 3 5 2 4
11 12 11 11 13 10 12 10 10 7 7 6 6 8 9 12 13 12 11 8 11 10 9 10 8 8 5 7 4 2 5 4
11 13 12 12 12 13 11 12 10 6 7 11 12 12 14 13 13 12 11 9 10 10 9 12 10 8 7 4 8 6 5 8
12 13 14 12 14 14 12 15 11 10 12 11 10 8 7 10 13 11 11 11 11 10 12 13 11 11 9 9 7 6 8 8
13 13 15 15 15 16 15 13 10 13 12 10 9 7 6 10 12 11 10 11 12 11 11 12 12 12 13 10 9 11 8 7
16 16 16 16 16 18 15 15 10 9 11 10 9 9 9 11 11 12 13 12 11 10 9 11 12 11 14 11 8 8 8 8
Wind_Direction
173 174 163 182 250 217 159 159 152 147 144 146 143 139 134 129 122 119 122 140 136 132 129 129 131 125 121 118 114 116 117 112
155 145 161 166 145 194 246 152 150 149 145 143 137 133 130 121 117 120 135 139 140 134 135 134 129 127 127 118 114 125 119 118
90 120 136 161 147 167 191 183 155 146 140 136 132 134 133 126 123 128 138 141 136 134 133 131 125 122 126 120 139 124 125 121
172 146 137 130 171 198 186 176 157 152 142 139 134 133 135 125 123 127 135 142 140 138 134 129 136 133 131 132 126 124 126 124
186 162 143 157 153 174 182 171 169 147 143 139 128 131 132 125 126 137 132 142 147 142 141 147 135 152 142 130 129 136 137 134
149 148 152 186 164 199 197 169 178 144 130 135 130 133 134 135 135 140 137 151 152 155 153 143 142 147 138 137 142 144 147 139
144 132 137 284 274 208 189 158 157 139 132 139 128 139 136 139 135 140 140 147 150 160 151 144 144 147 141 145 147 149 151 146
126 122 123 338 312 183 165 152 136 135 135 124 138 140 133 137 139 141 140 142 152 159 149 146 147 153 150 155 157 159 160 160
130 119 95 26 12 89 127 136 128 136 128 137 133 138 134 130 142 144 144 144 149 134 118 145 148 156 151 167 169 167 167 173
128 122 116 69 66 38 103 98 116 116 134 137 133 132 138 139 146 147 142 141 145 140 133 156 158 163 162 177 181 175 180 187
125 122 114 103 82 71 91 106 109 110 120 129 140 131 140 136 145 143 149 149 154 145 145 158 168 171 174 182 180 181 189 187
115 125 118 103 94 84 79 95 96 107 103 125 130 147 152 144 152 154 151 161 160 142 165 178 186 176 166 180 192 199 205 202
133 138 136 134 142 140 143 122 136 135 162 143 146 160 155 153 158 158 167 180 172 158 173 184 177 168 152 190 205 216 220 212
152 148 150 139 142 120 152 108 113 122 127 135 143 155 163 168 168 166 189 176 177 182 185 180 190 178 190 182 210 203 228 220
165 165 158 148 132 119 101 108 97 110 133 138 190 179 171 175 179 183 190 187 198 198 196 203 199 191 214 198 175 228 198 187
170 171 167 159 160 157 167 182 168 175 169 158 167 174 207 198 199 194 194 195 214 208 199 209 206 204 211 230 248 243 234 248
177 170 171 174 177 176 173 188 191 151 162 169 182 190 192 204 205 204 198 205 218 211 204 212 216 219 212 174 221 230 238 244
175 177 179 183 187 184 183 188 176 163 180 183 187 184 188 209 213 212 211 209 214 215 216 219 220 223 226 216 201 200 215 217
184 187 188 189 192 192 195 195 187 186 177 188 194 192 196 209 210 216 218 218 220 219 225 230 222 220 219 221 231 232 223 213
190 189 195 196 197 201 202 204 207 201 199 195 201 204 212 213 214 221 226 229 235 232 237 237 230 229 230 222 233 241 221 215